Terug naar catalogus

ECHOSTAR 4

ActiefCommunicatieGEO
NORAD 25331·PAYLOAD·🇺🇸 United States

Gelanceerd May 7, 1998 vanaf Baikonur Cosmodrome

Loading…

TLE

VersSource: Space-Track

Epoch: Sep 14, 2026, 13:18 UTC

1 25331U 98028A   26257.55484978 -.00000017  00000-0  00000-0 0  9992
2 25331  11.8752  30.5312 0010907 265.7850 107.6304  0.98949756103220

Volg ECHOSTAR 4 in realtime met AllMySat

Download on the App Store